sat.trackr.live / text

‹ back to catalog

LEO 3

NORAD 57392 · 2023-100G

PAYLOAD ACTIVE UNKNOWN

§ Identity

Operator
Country
CA
Launch date
2023-07-18
Launch site
RLLB
Launch vehicle
Mass (kg)
RCS (m²)

External: N2YO · Heavens-Above · Gunter

§ Orbital elements

Epoch: 2026-09-21T20:17:07.188576Z

Period
105.23 min
Inclination
99.5767°
Eccentricity
0.0018955
Mean motion
13.68420745 rev/d
Perigee alt
991.3 km
Apogee alt
1,019.2 km
Semi-major
7,383.4 km
B*
-5.2172e-6
RAAN
28.3194°
Arg perigee
126.0472°
Mean anomaly
234.2433°
Rev number
15,886

§ Raw data

LEO 31 57392U 23100G   26264.84522209 -.00000049  00000+0 -52172-5 0  99902 57392  99.5767  28.3194 0018955 126.0472 234.2433 13.68420745158867

JSON: /api/v1/satellites/57392 · /tle

For live sub-satellite position, see the globe view (requires WebGL).

§ Visibility from observer

Set your observer location to see the next 7 days of passes ≥ 10°. The values pass through the URL so the page stays shareable.

No JS? Fill the form by hand. The geolocation button needs JavaScript.